Vertical_Velocity
1 1 -3 -5 -7 -3 -0 -1 -5 -2 -3 1 -2 -5 -0 2 -0 -4 -2 0 -1 5 3 -8 -4 -5 3 -1 2 2 -2 -1 -4 -7 -5 -3 -2 -3 -4 -3 -3 -3 -2
1 0 -3 -6 -2 2 0 3 1 -2 -5 -4 -8 -1 -3 -0 12 10 4 1 3 -3 -0 -9 1 2 2 1 1 3 -2 -4 -2 1 -0 -6 -5 -1 -3 -1 -3 -3 -4
-1 -2 -5 2 2 -2 -1 -3 0 0 2 -5 7 -3 -2 -4 -1 7 4 -1 3 -1 -3 -2 5 3 1 1 1 3 5 -0 -6 -3 3 -8 -3 -3 1 -1 -2 -2 -3
-3 -5 -2 -5 1 0 -1 1 -0 -3 1 5 4 4 7 -3 5 5 -1 -1 1 -4 2 3 2 -1 -1 -0 0 0 -7 0 2 -3 -3 -3 -1 -3 -5 -3 -1 -2 -2
-1 -5 2 4 6 4 4 3 0 -0 2 3 3 3 6 7 4 0 -1 -1 -0 0 0 2 3 2 -0 3 -1 7 2 -3 5 -1 -4 -2 -2 -3 -5 2 -2 -2 -2
4 5 2 -1 3 2 2 0 3 4 2 3 1 4 -3 2 -1 3 2 2 1 2 2 4 -1 1 -0 1 -2 0 -2 1 1 -2 -3 -2 -1 -2 -2 -5 -3 -1 -0
1 2 2 -1 4 0 4 5 4 3 5 5 4 8 4 2 1 3 -3 5 1 5 6 6 8 0 0 7 -3 -3 -1 -2 -0 -2 -3 -5 -5 -4 -4 -4 -2 1 -1
0 -5 1 5 4 8 6 3 4 3 2 3 5 2 -1 7 6 8 8 6 5 -3 -11 7 3 2 10 -1 3 4 0 -1 1 -3 -4 -3 -3 -2 -2 -1 -4 -4 -6
-6 3 4 -3 1 5 9 8 6 4 -0 -2 0 3 3 2 7 8 0 2 8 3 6 1 -3 -2 -6 5 -0 -2 -4 -2 -4 -4 -2 -3 -2 -1 -4 -2 -1 -5 -3
-3 -4 -4 1 1 2 -1 -2 -0 -4 3 0 2 -0 11 -1 6 6 -1 -1 3 -2 2 -0 1 14 -1 0 -1 -4 -0 1 -3 -2 -2 -0 -1 -2 -3 -1 -1 -0 -3
-2 -4 -4 -3 -3 -2 -4 3 -1 -1 1 -0 -3 0 8 4 1 2 1 0 -7 14 22 -4 8 -6 -0 5 -0 0 4 3 -3 -7 -4 -1 -2 -1 -1 1 0 -1 -3
1 -2 0 1 -0 -1 -3 -3 -1 -0 3 1 3 7 8 3 3 10 6 -2 6 7 -2 -2 -0 2 12 -5 6 3 6 -3 -5 -2 -2 1 0 -1 -1 -2 -0 -2 -5
5 4 -2 -4 -5 -2 -3 -1 1 -2 -4 7 0 -2 1 2 4 5 9 10 1 -1 13 2 -9 12 -4 -0 2 15 -2 -1 0 1 -0 3 -1 -1 -2 -0 -1 -3 -2
4 5 3 1 -1 -2 0 1 1 -0 1 1 1 3 5 5 6 5 3 2 -0 -2 9 -7 4 2 -1 4 10 5 1 -2 -2 -2 3 3 -1 -1 0 -0 -1 -1 -1
0 -0 1 3 2 2 3 4 2 2 1 2 3 2 2 2 2 2 -0 0 -1 2 -0 3 2 -4 25 10 9 1 -4 -2 0 1 3 0 -1 -1 -0 -1 1 -1 -0
0 1 3 1 2 2 1 1 -0 -1 0 -1 1 -1 -4 -2 3 2 -0 -5 5 4 5 -3 -1 -1 -6 -1 2 -1 -1 2 3 1 0 0 0 3 1 1 1 -0 -2
1 1 2 1 -1 -1 -2 -3 -2 -1 -1 -2 -2 -1 0 -0 -0 -2 -1 5 8 -2 6 -1 15 6 18 -1 1 3 -2 3 4 0 2 1 2 -0 -1 -0 -2 0 -2
5 2 1 0 1 -0 -2 -2 -3 -2 -2 -3 -2 -1 1 1 1 2 1 4 -1 10 9 12 22 -2 3 1 0 3 -0 0 0 3 2 0 2 1 0 1 -0 -0 -3
1 1 1 0 -0 -1 -3 -3 -3 -4 -3 -1 -0 -0 1 1 2 -3 -4 -2 -1 -1 -1 2 -1 -0 2 5 1 -2 -0 -1 2 2 1 1 2 4 0 0 2 -1 2
1 1 -1 -3 -3 -4 -2 -0 -0 -0 -1 -2 -1 0 1 0 -1 0 1 0 -0 -1 -2 -3 1 0 2 2 0 -2 -1 -1 2 3 -0 3 3 4 -0 2 2 -1 3
0 -1 -2 -3 -1 -0 -0 -1 -2 -2 -1 -1 -2 -2 -2 -1 -0 -2 -3 -5 -4 -2 -2 -0 -0 -1 -2 2 0 4 -1 3 -3 -1 1 0 2 1 0 0 2 3 0
-2 -1 -1 -1 0 -0 -4 -4 -3 -2 -3 -2 -1 -1 -1 -1 -3 -3 -1 -1 -1 -1 -1 -1 3 4 2 -2 -0 0 2 3 -7 2 3 4 2 1 4 -1 1 4 1
0 1 1 -1 -1 -1 -0 -2 -3 -2 -1 -1 -2 -2 -1 0 0 1 1 -1 -2 -3 -1 -3 -2 4 5 6 5 -2 -2 2 -7 1 1 4 2 2 -3 2 3 4 -1
-1 -2 -2 -2 -1 -2 -3 -3 -1 -1 -2 -2 -1 -0 -2 -2 -1 -4 -2 -2 -3 -3 -3 -3 -4 -2 4 1 -0 2 8 11 0 -3 -2 4 3 1 -0 -2 4 1 2
-2 -2 -2 -1 -2 -2 -1 -2 -3 -2 -1 -1 -1 -1 -1 1 -1 -0 -2 -1 -4 -5 -5 -3 -5 -11 2 3 -0 -3 -1 -1 6 2 2 1 7 8 -1 1 5 3 0
-0 1 0 -3 -5 -4 -3 -3 -2 -2 -3 -2 -2 1 -0 1 0 3 3 0 -1 1 1 -0 -2 5 -8 -4 -2 -1 3 -0 7 0 1 2 5 3 7 16 15 9 2
Height
3137 3139 3140 3143 3145 3146 3149 3152 3154 3156 3157 3159 3161 3163 3165 3166 3166 3167 3167 3167 3168 3169 3169 3170 3169 3169 3168 3166 3165 3163 3161 3159 3157 3154 3151 3147 3143 3140 3137 3133 3129 3125 3122
3137 3139 3141 3142 3144 3146 3149 3150 3153 3155 3157 3158 3161 3161 3162 3163 3163 3162 3163 3165 3165 3165 3166 3165 3165 3164 3164 3162 3161 3158 3156 3154 3152 3149 3145 3139 3137 3134 3130 3126 3122 3118 3113
3137 3138 3140 3142 3144 3146 3148 3150 3152 3154 3155 3157 3157 3158 3159 3160 3160 3161 3161 3161 3161 3161 3161 3160 3160 3160 3158 3157 3155 3152 3151 3148 3145 3142 3140 3133 3128 3124 3121 3117 3114 3109 3104
3136 3137 3139 3140 3142 3144 3145 3146 3148 3149 3150 3152 3153 3155 3156 3156 3156 3157 3156 3155 3156 3156 3156 3156 3155 3154 3152 3150 3148 3146 3143 3141 3137 3132 3129 3126 3122 3117 3111 3108 3105 3100 3095
3133 3134 3136 3138 3140 3141 3142 3144 3145 3146 3147 3149 3150 3151 3152 3152 3152 3151 3150 3150 3150 3150 3150 3150 3149 3148 3146 3144 3142 3136 3134 3131 3129 3124 3120 3116 3112 3108 3104 3099 3094 3090 3085
3129 3131 3133 3134 3136 3138 3139 3140 3141 3142 3144 3145 3146 3146 3145 3146 3146 3146 3145 3145 3144 3144 3144 3144 3143 3141 3139 3136 3132 3129 3125 3123 3119 3115 3111 3107 3103 3099 3094 3089 3084 3079 3076
3123 3125 3126 3128 3131 3133 3134 3136 3137 3138 3139 3140 3140 3139 3139 3140 3140 3139 3140 3138 3138 3138 3138 3137 3136 3133 3130 3128 3125 3121 3117 3113 3110 3105 3102 3099 3094 3089 3083 3078 3074 3069 3065
3115 3117 3120 3123 3125 3128 3130 3132 3133 3134 3135 3135 3135 3135 3135 3135 3134 3135 3134 3132 3131 3131 3130 3129 3127 3124 3121 3118 3116 3113 3108 3105 3101 3097 3094 3089 3083 3077 3072 3069 3065 3061 3057
3109 3111 3113 3116 3119 3121 3124 3127 3129 3130 3131 3131 3130 3130 3130 3129 3128 3128 3126 3125 3125 3123 3122 3121 3119 3115 3111 3111 3107 3104 3100 3096 3092 3088 3082 3076 3071 3068 3064 3061 3058 3054 3049
3106 3107 3108 3110 3113 3115 3117 3120 3123 3124 3125 3125 3125 3124 3123 3122 3122 3121 3119 3118 3117 3115 3113 3112 3108 3105 3104 3102 3099 3095 3091 3087 3081 3077 3071 3066 3063 3060 3056 3053 3050 3046 3042
3103 3104 3105 3106 3108 3109 3111 3114 3116 3117 3118 3119 3119 3118 3117 3116 3116 3114 3112 3110 3108 3105 3103 3103 3101 3100 3097 3094 3089 3086 3082 3076 3072 3067 3063 3058 3055 3053 3050 3047 3042 3038 3034
3102 3102 3102 3104 3105 3106 3107 3110 3112 3113 3114 3114 3113 3112 3110 3109 3109 3106 3104 3101 3098 3097 3097 3096 3093 3092 3088 3084 3079 3076 3070 3067 3062 3057 3054 3051 3048 3047 3043 3039 3035 3030 3026
3100 3100 3100 3101 3103 3104 3105 3107 3107 3108 3108 3108 3106 3105 3103 3101 3100 3098 3096 3094 3092 3090 3087 3086 3085 3081 3078 3073 3069 3066 3062 3058 3053 3050 3046 3045 3042 3039 3035 3031 3027 3023 3018
3096 3096 3097 3098 3099 3100 3102 3102 3102 3102 3101 3100 3099 3098 3096 3093 3091 3090 3088 3086 3084 3082 3079 3077 3073 3068 3065 3062 3058 3057 3054 3050 3046 3043 3040 3038 3035 3031 3027 3023 3020 3015 3010
3090 3092 3093 3094 3095 3096 3097 3097 3096 3095 3094 3093 3092 3090 3088 3086 3083 3081 3079 3076 3075 3074 3071 3067 3065 3060 3055 3055 3053 3050 3046 3042 3038 3035 3033 3031 3027 3023 3020 3015 3011 3008 3003
3086 3087 3087 3088 3089 3090 3091 3091 3091 3090 3089 3087 3084 3082 3079 3076 3075 3072 3071 3069 3067 3063 3061 3056 3055 3052 3051 3048 3045 3041 3036 3033 3030 3028 3025 3022 3018 3014 3011 3007 3003 3001 2996
3080 3080 3082 3083 3083 3084 3084 3084 3084 3082 3080 3078 3075 3073 3071 3068 3066 3064 3062 3061 3059 3056 3050 3047 3044 3044 3043 3040 3036 3033 3027 3024 3022 3018 3015 3012 3009 3005 3002 2998 2995 2992 2988
3075 3076 3077 3077 3078 3078 3077 3077 3075 3073 3071 3069 3067 3064 3062 3060 3057 3055 3054 3053 3051 3046 3044 3042 3041 3037 3035 3031 3027 3023 3018 3015 3013 3009 3006 3002 2999 2996 2993 2989 2986 2983 2979
3071 3072 3072 3073 3072 3072 3070 3069 3067 3065 3063 3061 3058 3056 3053 3051 3049 3047 3046 3043 3040 3038 3035 3034 3031 3028 3025 3022 3018 3013 3009 3006 3003 3000 2996 2993 2989 2987 2983 2979 2977 2974 2971
3066 3066 3066 3066 3066 3065 3063 3062 3060 3058 3055 3052 3050 3047 3045 3043 3041 3039 3037 3034 3032 3029 3027 3024 3022 3019 3016 3012 3009 3004 2999 2996 2993 2990 2986 2983 2980 2976 2973 2969 2967 2965 2962
3060 3060 3060 3059 3058 3057 3056 3054 3052 3049 3046 3044 3041 3039 3037 3035 3033 3030 3027 3025 3023 3021 3019 3017 3014 3009 3005 3001 2998 2993 2988 2985 2981 2977 2974 2971 2968 2965 2962 2959 2957 2957 2953
3055 3054 3054 3053 3051 3050 3048 3046 3043 3041 3039 3036 3034 3032 3030 3027 3025 3023 3021 3019 3017 3014 3011 3007 3004 3000 2996 2992 2988 2982 2977 2973 2968 2965 2962 2959 2956 2953 2951 2948 2948 2946 2944
3049 3048 3048 3046 3045 3043 3040 3038 3036 3034 3031 3029 3027 3025 3023 3021 3019 3017 3014 3012 3008 3004 3001 2997 2993 2990 2986 2982 2977 2971 2966 2960 2955 2952 2950 2946 2944 2941 2939 2938 2937 2935 2933
3043 3042 3041 3040 3038 3035 3033 3031 3028 3026 3024 3023 3021 3019 3017 3015 3012 3010 3007 3004 3000 2997 2992 2988 2984 2979 2974 2968 2962 2956 2951 2946 2940 2937 2934 2932 2929 2928 2927 2926 2925 2923 2922
3037 3036 3034 3032 3030 3028 3026 3024 3022 3020 3019 3017 3015 3013 3011 3009 3006 3003 2999 2996 2991 2987 2982 2976 2971 2965 2960 2953 2946 2939 2933 2928 2923 2918 2917 2914 2913 2913 2913 2912 2912 2911 2910
3029 3028 3026 3025 3023 3022 3020 3017 3015 3014 3012 3011 3009 3007 3005 3002 2999 2996 2992 2988 2983 2978 2973 2967 2960 2952 2945 2939 2931 2924 2917 2911 2906 2901 2898 2896 2896 2898 2899 2897 2897 2898 2898